This is the latest recevied weather packets stored in our database for station/object AD8BV. If no packets are shown the sender has not sent any weather packets the latest 10 day(s).
| Time | Temp. | Humidity | Pressure | Rain* | Wind** | Luminosity | Snow |
|---|---|---|---|---|---|---|---|
| 1777917722 | 23.89° C | 36% | 1003.2 hPa | 0 mm | - | 688 W/m² | - |
| 1777917418 | 23.89° C | 36% | 1003.2 hPa | 0 mm | - | 639 W/m² | - |
| 1777917115 | 24.44° C | 33% | 1003.5 hPa | 0 mm | - | 688 W/m² | - |
| 1777916813 | 24.44° C | 35% | 1003.4 hPa | 0 mm | - | 644 W/m² | - |
| 1777916510 | 24.44° C | 36% | 1003.4 hPa | 0 mm | - | 685 W/m² | - |
| 1777916207 | 23.89° C | 37% | 1003.8 hPa | 0 mm | - | 720 W/m² | - |
| 1777915904 | 23.89° C | 37% | 1003.7 hPa | 0 mm | - | 704 W/m² | - |
| 1777915601 | 23.89° C | 37% | 1003.6 hPa | 0 mm | - | 704 W/m² | - |
| 1777915297 | 23.89° C | 40% | 1003.8 hPa | 0 mm | - | 701 W/m² | - |
| 1777914994 | 23.89° C | 35% | 1003.8 hPa | 0 mm | - | 699 W/m² | - |
| 1777914691 | 23.33° C | 34% | 1003.9 hPa | 0 mm | - | 704 W/m² | - |
| 1777914387 | 23.33° C | 37% | 1004.1 hPa | 0 mm | - | 696 W/m² | - |
| 1777914085 | 23.33° C | 39% | 1004.2 hPa | 0 mm | - | 698 W/m² | - |
| 1777913781 | 23.33° C | 37% | 1004 hPa | 0 mm | - | 713 W/m² | - |
| 1777913477 | 23.89° C | 40% | 1004.2 hPa | 0 mm | - | 712 W/m² | - |
| 1777913174 | 23.89° C | 36% | 1004.1 hPa | 0 mm | - | 694 W/m² | - |
| 1777912870 | 23.33° C | 42% | 1004.6 hPa | 0 mm | - | 703 W/m² | - |
| 1777912567 | 23.33° C | 43% | 1004.6 hPa | 0 mm | - | 717 W/m² | - |
| 1777912263 | 23.33° C | 38% | 1004.6 hPa | 0 mm | - | 691 W/m² | - |
| 1777911959 | 22.78° C | 44% | 1004.6 hPa | 0 mm | - | 667 W/m² | - |
| 1777911655 | 22.78° C | 42% | 1004.8 hPa | 0 mm | - | 684 W/m² | - |
| 1777911352 | 22.78° C | 44% | 1004.9 hPa | 0 mm | - | 701 W/m² | - |
| 1777911049 | 22.78° C | 45% | 1004.7 hPa | 0 mm | - | 681 W/m² | - |
| 1777910747 | 22.22° C | 46% | 1004.8 hPa | 0 mm | - | 654 W/m² | - |
| 1777910443 | 22.22° C | 50% | 1004.7 hPa | 0 mm | - | 646 W/m² | - |
* Rain latest hour (hover to see other rain measurements)
** Current wind speed in m/s (hover to see current wind gust speed)